Location: Newark
(51.0500°N, 12.4500°E)
Time: 06:52:17
(UTC+00:00)

Vanguard 2 - Visible Passes

Search period start: 25 February 2020 00:00
Search period end: 06 March 2020 00:00
Orbit: 552 x 2939 km, 32.9° (Epoch: 24 February)

Date Brightness Start Highest point End Pass type
(mag) Time Alt. Az. Time Alt. Az. Time Alt. Az.
25 Feb 10.6 01:29:05 26° SE 01:29:05 26° SE 01:37:38 10° ESE visible
25 Feb 10.3 03:30:29 26° SW 03:35:39 34° S 03:49:27 10° SE visible
26 Feb 10.5 01:45:51 28° SSE 01:45:51 28° SSE 01:55:27 10° ESE visible
26 Feb 10.4 03:47:16 23° SW 03:53:10 33° S 04:06:42 10° SE visible
27 Feb 10.3 02:02:40 30° SSE 02:02:40 30° SSE 02:13:07 10° ESE visible
27 Feb 10.5 04:04:04 19° SW 04:10:43 30° S 04:23:44 10° SE visible
28 Feb 11.2 00:18:05 11° ESE 00:18:05 11° ESE 00:18:32 10° ESE visible
28 Feb 10.3 02:19:29 30° S 02:19:29 30° S 02:30:38 10° ESE visible
28 Feb 10.6 04:20:53 15° WSW 04:28:15 27° SSW 04:40:30 10° SSE visible
29 Feb 11.1 00:34:56 13° ESE 00:34:56 13° ESE 00:36:30 10° ESE visible
29 Feb 10.2 02:36:21 29° S 02:36:39 29° S 02:47:59 10° SE visible
29 Feb 10.7 04:37:45 12° WSW 04:45:48 23° SSW 04:56:53 10° SSE visible
01 Mar 11.0 00:51:50 15° SE 00:51:50 15° SE 00:54:17 10° ESE visible
01 Mar 10.2 02:53:15 27° SSW 02:54:12 27° S 03:05:07 10° SE visible
01 Mar 10.8 04:55:39 10° WSW 05:03:18 19° SSW 05:12:44 10° SSE visible
02 Mar 10.9 01:08:46 17° SE 01:08:46 17° SE 01:11:53 10° ESE visible
02 Mar 10.3 03:10:11 24° SSW 03:11:46 24° S 03:22:00 10° SE visible
02 Mar 11.0 05:14:52 10° SW 05:20:48 14° SSW 05:27:41 10° S visible
03 Mar 10.8 01:25:45 17° SE 01:25:45 17° SE 01:29:19 10° SE visible
03 Mar 10.4 03:27:10 20° SSW 03:29:21 21° SSW 03:38:31 10° SSE visible
04 Mar 10.7 01:42:47 17° SSE 01:42:47 17° SSE 01:46:33 10° SE visible
04 Mar 10.5 03:44:12 16° SW 03:46:55 17° SSW 03:54:31 10° SSE visible
05 Mar 10.7 01:59:52 17° SSE 01:59:52 17° SSE 02:03:30 10° SE visible
05 Mar 10.7 04:01:17 11° SW 04:04:29 13° SSW 04:09:33 10° S visible
